Location: Faye
(46.9573°N, 0.3407°E)
Time: 00:19:25
(UTC+00:00)

Daily predictions for brighter satellites

Satellite Brightness Start Highest point End
(mag) Time Altitude Azimuth Time Altitude Azimuth Time Altitude Azimuth
SL-16 R/B 4.5 01:51:00 21° NNW 01:51:00 21° NNW 01:52:48 10° NNW
Resurs 1-4 Rocket 4.3 02:01:46 10° N 02:03:14 19° N 02:03:14 19° N
Cosmos 1833 Rocket 4.2 02:13:01 32° NE 02:13:01 32° NE 02:16:07 10° NE
CZ-2D R/B 4.2 02:17:16 10° N 02:18:59 21° N 02:18:59 21° N
CENTAUR R/B 4.1 02:27:13 23° ESE 02:27:49 23° ESE 02:32:53 10° ENE
Lacrosse 4 Rocket 4.3 02:30:46 14° NNE 02:32:06 16° NE 02:34:50 10° ENE
Cosmos 2082 Rocket 3.4 02:38:49 35° E 02:38:49 35° E 02:43:37 10° NE
ADEOS II 3.7 02:40:06 10° N 02:42:28 27° N 02:42:28 27° N
CZ-2C R/B 4.0 02:46:16 10° NE 02:50:32 29° E 02:51:09 28° ESE
COSMOS 2406 3.4 03:01:52 66° E 03:01:52 66° E 03:07:05 10° NNE
NOSS 3-2 (A) 4.2 03:01:33 38° SE 03:02:13 39° ESE 03:07:53 10° NE
Cosmos 1605 Rocket 4.1 03:06:05 62° NNW 03:06:05 62° NNW 03:11:15 10° N
ATLAS CENTAUR R/B 2.7 03:08:06 43° NNE 03:08:06 43° NNE 03:11:24 10° NE
Cosmos 2322 Rocket 4.4 03:08:41 10° N 03:13:12 23° NE 03:17:40 10° E
Meteor 1-11 Rocket 3.7 03:11:21 10° N 03:17:23 90° ENE 03:18:13 68° S
Cosmos 1980 Rocket 3.6 03:14:05 10° NNW 03:23:07 25° SSE 03:25:19 10° SSE
USA 308 4.2 03:25:30 34° NNE 03:25:30 34° NNE 03:28:23 10° NE
Cosmos 44 Rocket 3.5 03:26:24 63° NNE 03:26:24 63° NNE 03:30:24 10° NE
ATLAS 5 CENTAUR R/B 4.4 03:24:12 10° NNW 03:26:11 12° NNE 03:28:17 10° NE
PAYLOAD A 4.3 03:22:09 10° NNE 03:26:59 60° ESE 03:28:15 45° SSE
CBERS-1 3.8 03:28:29 10° NNE 03:33:38 85° WNW 03:33:56 79° SW
Cosmos 2056 Rocket 4.0 03:35:21 43° NNW 03:35:21 43° NNW 03:39:25 10° NNE
Cosmos 2173 Rocket 4.1 03:33:19 22° S 03:37:27 73° E 03:43:31 10° NNE
Cosmos 1420 Rocket 4.3 03:38:26 51° NW 03:38:26 51° NW 03:43:01 10° NNE
Cosmos 1515 Rocket 3.8 03:37:57 57° SE 03:38:38 68° E 03:43:06 10° NNE
Cosmos 1461 3.1 03:42:22 63° ESE 03:42:22 63° ESE 03:46:26 10° NE
IRS-1D 4.1 03:38:41 10° N 03:43:03 42° NW 03:43:03 42° NW
ALOS 2.1 03:39:03 10° N 03:43:37 73° WNW 03:43:37 73° WNW
Cosmos 2278 3.6 03:38:13 10° NNW 03:43:55 86° ENE 03:49:35 10° SSE
SL-16 R/B 3.2 03:38:50 10° NNW 03:44:19 46° NE 03:49:46 10° SE
USA 305 4.0 03:44:58 33° N 03:44:58 33° N 03:48:42 10° NE
Resurs 1-4 Rocket 4.3 03:43:49 10° NNW 03:44:18 11° NW 03:44:18 11° NW
IDEFIX/ARIANE 42P 4.4 03:44:13 10° NNW 03:46:26 18° NW 03:46:26 18° NW
FENGYUN 3A 3.7 03:45:39 10° N 03:50:56 57° WNW 03:51:35 53° W
METEOR-M 4.2 03:47:48 10° NNE 03:53:11 79° ESE 03:56:56 20° S
CZ-3 R/B 4.5 03:39:43 23° SW 03:53:40 35° S 04:03:15 10° ESE
Cosmos 1833 Rocket 3.7 03:54:43 30° NW 03:54:50 30° NW 03:59:47 10° N
IRS-P3 4.3 03:50:31 10° NNE 03:55:52 70° ESE 04:00:46 12° S
Cosmos 1741 Rocket 3.9 03:52:06 10° NNW 03:57:22 86° WSW 04:02:35 10° SSE
RUBIN 8/PSLV 4.5 03:53:23 10° N 03:57:44 71° WNW 03:58:15 63° WSW
Cosmos 1331 Rocket 4.3 04:00:12 17° S 04:04:09 65° ESE 04:09:18 10° NNE
MINOTAUR IV R/B 4.4 04:01:49 11° NNW 04:06:08 66° WSW 04:10:34 10° SSE
YAOGAN 6 3.5 04:02:47 10° NNE 04:06:20 49° E 04:09:36 11° S
Lacrosse 5 rocket 4.3 04:09:05 10° SSE 04:11:18 14° ESE 04:13:31 10° E
Lacrosse 4 Rocket 1.5 04:07:07 11° NNW 04:11:22 87° ENE 04:15:48 10° SSE
Cosmos 1484 Rocket 3.0 04:07:33 10° NNE 04:11:33 71° ESE 04:14:53 14° S
Meteor 1-27 Rocket 4.0 04:10:33 34° SW 04:12:45 49° WNW 04:18:30 10° N
ARIANE 5 R/B 2.4 04:08:29 10° NNE 04:13:32 86° WNW 04:18:02 13° SSW
Helios 1B rocket 2.4 04:10:09 10° N 04:14:11 60° WNW 04:15:11 45° SW
CZ-2C R/B 2.5 04:09:02 10° S 04:14:16 73° WSW 04:19:40 10° NNW
Meteor 1-29 4.1 04:13:54 10° NNE 04:17:05 42° E 04:20:14 10° S
CENTAUR R/B 2.5 04:14:26 30° SW 04:17:34 74° NW 04:24:46 10° NE
ERS-1 4.5 04:12:53 10° NNE 04:18:07 85° WNW 04:23:19 10° SSW
CZ-2C R/B 4.0 04:13:49 10° NNE 04:19:26 55° E 04:24:45 10° S
Cosmos 2100 Rocket 4.0 04:15:24 21° SSW 04:19:29 54° WNW 04:25:32 10° N
Cosmos 1110 Rocket 3.9 04:16:34 18° SSW 04:20:27 85° WNW 04:25:40 10° NNE
Cosmos 2333 Rocket 4.1 04:16:02 10° NNW 04:21:03 31° NE 04:26:01 10° ESE
Cosmos 2016 Rocket 4.0 04:14:49 10° S 04:21:12 83° W 04:27:36 10° N
CZ-4C R/B 4.3 04:17:14 10° SSE 04:21:23 53° ENE 04:25:39 10° N
Cosmos 2082 Rocket 2.7 04:20:42 31° W 04:22:34 41° NW 04:27:53 10° NNE
SL-08 R/B 4.4 04:17:42 10° S 04:23:48 89° E 04:30:01 10° N
ADEOS II 4.2 04:23:02 10° NW 04:23:23 10° NW 04:23:23 10° NW
Okean 1 3.4 04:23:13 36° SW 04:24:32 52° WNW 04:28:29 10° N
Cosmos 1452 Rocket 3.7 04:24:11 27° SW 04:26:50 53° WNW 04:32:02 10° NNE
USA 276 3.4 04:26:13 25° S 04:27:11 31° SSE 04:29:55 10° E
Cosmos 1869 Rocket 3.5 04:23:42 10° N 04:28:10 87° W 04:32:32 10° S
Cosmos 2360 Rocket 3.2 04:22:52 10° NNW 04:28:20 48° ENE 04:33:44 10° SE
Meteor 1-18 Rocket 4.3 04:22:42 10° S 04:28:22 81° E 04:34:00 10° NNE
CZ-2C R/B 2.9 04:24:17 10° N 04:28:48 37° WNW 04:30:30 28° WSW
USA 307 4.2 04:27:02 21° NW 04:28:55 30° N 04:32:37 10° ENE
Envisat 3.1 04:24:50 10° NNE 04:29:57 82° ESE 04:35:02 10° SSW
Cosmos 968 Rocket 3.8 04:25:17 10° NNW 04:30:27 68° ENE 04:35:32 10° SSE
TIMED 4.5 04:30:21 22° SW 04:33:05 65° WNW 04:37:27 10° NNE
Cosmos 1816 Rocket 4.4 04:28:53 10° NNW 04:35:00 62° W 04:41:01 10° S
Orbus 7S? 4.5 04:33:42 25° WNW 04:35:21 37° NNW 04:41:29 10° NE
Cosmos 489 Rocket 4.4 04:30:43 10° NNW 04:36:59 81° WSW 04:43:11 10° SSE
USA 306 4.2 04:35:54 17° NW 04:38:18 30° N 04:41:57 10° ENE
H-2A R/B 2.9 04:37:14 10° NNE 04:40:53 69° E 04:44:32 10° S
SL-24 R/B - RUBIN 2 3.6 04:38:52 24° WSW 04:41:23 58° NW 04:45:42 10° NNE
Cosmos 2061 Rocket 3.9 04:35:24 10° SSW 04:41:34 70° W 04:47:47 10° N
Cosmos 1459 Rocket 4.5 04:40:10 11° SW 04:45:47 39° WNW 04:51:45 10° N
ATLAS CENTAUR R/B 3.5 04:44:03 15° WNW 04:46:04 19° NNW 04:49:28 10° NNE
PSLV R/B 4.0 04:41:48 10° NNE 04:46:07 65° E 04:50:20 10° S
COSMOS 2406 4.4 04:43:57 19° W 04:46:17 24° NW 04:50:52 10° N
Cosmos 1733 Rocket 4.0 04:42:47 10° N 04:47:08 53° ENE 04:51:25 10° SSE
X-37B 2.2 04:49:24 17° SSW 04:49:36 18° SSW 04:51:38 10° SSE
Cosmos 1933 Rocket 4.5 04:46:11 10° NNW 04:49:53 26° W 04:53:32 10° SW
CZ-2D R/B 3.7 04:46:28 10° N 04:50:15 43° WNW 04:54:05 10° SW
Meteor 2-4 Rocket 3.7 04:45:04 10° SSW 04:50:48 78° WNW 04:56:25 10° N
NOSS 3-2 (A) 3.8 04:48:59 19° WSW 04:52:53 46° NW 04:59:14 10° NE
NOSS 3-2 (C) 3.3 04:48:33 13° SW 04:53:33 73° NW 05:00:02 10° NE
Cosmos 1975 3.0 04:52:48 10° NNW 04:56:38 46° W 05:00:24 10° SSW
Cosmos 2322 Rocket 2.1 04:52:10 10° NNW 04:57:52 74° WSW 05:03:28 10° SSE
SL-08 R/B 3.7 04:53:47 10° SSW 04:58:10 39° W 05:02:40 10° NNW
Cosmos 2237 4.2 04:54:01 10° NNW 04:59:41 67° WSW 05:05:18 10° SSE
Cosmos 1242 Rocket 2.4 04:57:07 10° NNW 05:00:30 58° W 05:03:49 10° S
CZ-2C R/B 2.7 04:57:14 10° NNE 05:01:03 89° ESE 05:04:56 10° SSW
Cosmos 2233 Rocket 4.0 04:56:14 10° SSW 05:02:31 68° W 05:08:50 10° N
USA 308 4.2 05:01:01 11° WNW 05:04:33 30° N 05:08:14 10° ENE
Cosmos 1378 4.5 05:04:38 16° WSW 05:06:11 20° WNW 05:08:56 10° NNW
COSMOS 2455 2.9 05:01:15 10° NNW 05:07:20 90° ENE 05:13:21 10° SSE
USA 238 DEB 3.7 05:02:58 10° SW 05:09:22 68° NW 05:16:16 10° NE
USA 238 3.7 05:03:04 10° SW 05:09:28 68° NW 05:16:22 10° NE
Cosmos 1805 3.2 05:05:47 10° N 05:09:41 89° E 05:13:33 10° S
Tsikada Rocket 4.2 05:05:08 10° NNW 05:11:06 46° W 05:16:58 10° SSW
SKYMED 2 3.6 05:07:35 10° SSE 05:11:55 87° WSW 05:16:18 10° NNW
ATLAS 5 CENTAUR R/B 3.9 05:07:50 10° NNW 05:12:16 29° NE 05:17:28 10° E
CZ-4B R/B 3.8 05:10:01 10° NNE 05:15:18 78° ESE 05:20:34 10° SSW
GP-B 4.1 05:13:42 10° SW 05:17:19 24° W 05:20:58 10° NNW
ALOS 4.2 05:19:11 10° NW 05:20:15 11° NW 05:21:19 10° WNW
Cosmos 1733 3.1 05:16:57 10° NNW 05:20:38 60° W 05:24:18 10° S
Cosmos 1461 4.4 05:18:37 11° W 05:21:38 21° NW 05:24:56 10° NNE
USA 305 4.1 05:21:14 10° NW 05:25:00 34° N 05:28:46 10° ENE
USA 290 2.2 05:21:52 10° NNW 05:25:03 62° WSW 05:28:13 10° S
SL-16 R/B 2.9 05:23:18 10° NW 05:28:13 31° WSW 05:33:08 10° SSW
Meteor 1-13 Rocket 4.4 05:23:04 10° S 05:28:38 78° E 05:34:11 10° NNE
Cosmos 1862 Rocket 3.6 05:24:51 10° SSW 05:29:19 76° W 05:33:47 10° N
NOAA 11 4.3 05:24:30 10° N 05:29:53 58° WNW 05:35:13 10° SSW
Cosmos 1766 3.6 05:26:19 10° N 05:30:17 73° E 05:34:12 10° SSE
USA 234 3.8 05:26:09 10° ENE 05:32:39 62° SE 05:39:06 10° SW
SJ 16-02 2.5 05:30:57 10° N 05:35:11 47° ENE 05:39:24 10° SE
Cosmos 1908 Rocket 4.3 05:31:30 10° N 05:35:51 60° ENE 05:40:12 10° SSE
